Year,Month,Day,Hour,Minute,Value (Times are PST for windspeed in km/hr)
2015,01,18,00,00,3.50
2015,01,18,00,01,3.50
2015,01,18,00,02,3.60
2015,01,18,00,03,2.30
2015,01,18,00,04,5.10
2015,01,18,00,05,1.20
2015,01,18,00,06,3.60
2015,01,18,00,07,3.60
2015,01,18,00,08,4.70
2015,01,18,00,09,4.70
2015,01,18,00,10,1.90
2015,01,18,00,11,1.60
2015,01,18,00,12,5.50
2015,01,18,00,13,6.40
2015,01,18,00,14,7.60
2015,01,18,00,15,8.80
2015,01,18,00,16,4.20
2015,01,18,00,17,4.60
2015,01,18,00,18,7.00
2015,01,18,00,19,8.50
2015,01,18,00,20,5.80
2015,01,18,00,21,4.70
2015,01,18,00,22,6.10
2015,01,18,00,23,5.60
2015,01,18,00,24,3.50
2015,01,18,00,25,4.60
2015,01,18,00,26,2.10
2015,01,18,00,27,0.50
2015,01,18,00,28,0.00
2015,01,18,00,29,1.90
2015,01,18,00,30,3.70
2015,01,18,00,31,2.40
2015,01,18,00,32,2.20
2015,01,18,00,33,4.00
2015,01,18,00,34,3.50
2015,01,18,00,35,0.50
2015,01,18,00,36,0.00
2015,01,18,00,37,1.10
2015,01,18,00,38,2.50
2015,01,18,00,39,4.20
2015,01,18,00,40,1.80
2015,01,18,00,41,1.10
2015,01,18,00,42,0.80
2015,01,18,00,43,1.90
2015,01,18,00,44,3.40
2015,01,18,00,45,3.00
2015,01,18,00,46,4.00
2015,01,18,00,47,4.20
2015,01,18,00,48,3.90
2015,01,18,00,49,3.50
2015,01,18,00,50,3.50
2015,01,18,00,51,0.30
2015,01,18,00,52,1.90
2015,01,18,00,53,0.60
2015,01,18,00,54,0.20
2015,01,18,00,55,5.70
2015,01,18,00,56,7.30
2015,01,18,00,57,4.70
2015,01,18,00,58,2.00
2015,01,18,00,59,2.80
2015,01,18,01,00,0.70
2015,01,18,01,01,2.70
2015,01,18,01,02,5.20
2015,01,18,01,03,3.80
2015,01,18,01,04,5.10
2015,01,18,01,05,4.40
2015,01,18,01,06,5.20
2015,01,18,01,07,5.20
2015,01,18,01,08,6.30
2015,01,18,01,09,6.80
2015,01,18,01,10,5.90
2015,01,18,01,11,3.10
2015,01,18,01,12,5.10
2015,01,18,01,13,5.00
2015,01,18,01,14,5.20
2015,01,18,01,15,5.20
2015,01,18,01,16,3.10
2015,01,18,01,17,3.50
2015,01,18,01,18,4.00
2015,01,18,01,19,1.40
2015,01,18,01,20,3.10
2015,01,18,01,21,8.70
2015,01,18,01,22,8.20
2015,01,18,01,23,11.40
2015,01,18,01,24,9.90
2015,01,18,01,25,5.50
2015,01,18,01,26,7.60
2015,01,18,01,27,9.10
2015,01,18,01,28,18.10
2015,01,18,01,29,14.20
2015,01,18,01,30,24.40
2015,01,18,01,31,10.80
2015,01,18,01,32,9.80
2015,01,18,01,33,18.40
2015,01,18,01,34,17.80
2015,01,18,01,35,26.80
2015,01,18,01,36,18.50
2015,01,18,01,37,16.30
2015,01,18,01,38,20.40
2015,01,18,01,39,27.80
2015,01,18,01,40,18.70
2015,01,18,01,41,23.10
2015,01,18,01,42,16.50
2015,01,18,01,43,18.60
2015,01,18,01,44,20.80
2015,01,18,01,45,15.60
2015,01,18,01,46,19.70
2015,01,18,01,47,18.30
2015,01,18,01,48,12.70
2015,01,18,01,49,20.80
2015,01,18,01,50,14.00
2015,01,18,01,51,32.90
2015,01,18,01,52,24.70
2015,01,18,01,53,10.50
2015,01,18,01,54,13.90
2015,01,18,01,55,19.70
2015,01,18,01,56,21.40
2015,01,18,01,57,19.40
2015,01,18,01,58,16.80
2015,01,18,01,59,13.00
2015,01,18,02,00,19.30
2015,01,18,02,01,24.10
2015,01,18,02,02,25.90
2015,01,18,02,03,19.60
2015,01,18,02,04,10.00
2015,01,18,02,05,16.80
2015,01,18,02,06,10.50
2015,01,18,02,07,10.60
2015,01,18,02,08,13.50
2015,01,18,02,09,19.20
2015,01,18,02,10,10.20
2015,01,18,02,11,18.20
2015,01,18,02,12,12.50
2015,01,18,02,13,24.50
2015,01,18,02,14,15.50
2015,01,18,02,15,18.60
2015,01,18,02,16,14.60
2015,01,18,02,17,17.90
2015,01,18,02,18,16.00
2015,01,18,02,19,15.20
2015,01,18,02,20,17.20
2015,01,18,02,21,14.50
2015,01,18,02,22,10.50
2015,01,18,02,23,21.50
2015,01,18,02,24,26.50
2015,01,18,02,25,8.00
2015,01,18,02,26,18.20
2015,01,18,02,27,19.30
2015,01,18,02,28,25.10
2015,01,18,02,29,15.40
2015,01,18,02,30,16.90
2015,01,18,02,31,10.80
2015,01,18,02,32,15.40
2015,01,18,02,33,14.40
2015,01,18,02,34,21.90
2015,01,18,02,35,23.50
2015,01,18,02,36,15.90
2015,01,18,02,37,5.10
2015,01,18,02,38,5.90
2015,01,18,02,39,16.40
2015,01,18,02,40,13.10
2015,01,18,02,41,16.00
2015,01,18,02,42,11.60
2015,01,18,02,43,8.40
2015,01,18,02,44,5.20
2015,01,18,02,45,3.50
2015,01,18,02,46,10.40
2015,01,18,02,47,23.10
2015,01,18,02,48,18.00
2015,01,18,02,49,11.50
2015,01,18,02,50,28.10
2015,01,18,02,51,17.50
2015,01,18,02,52,8.90
2015,01,18,02,53,8.90
2015,01,18,02,54,8.10
2015,01,18,02,55,3.50
2015,01,18,02,56,8.80
2015,01,18,02,57,10.50
2015,01,18,02,58,8.00
2015,01,18,02,59,9.90
2015,01,18,03,00,10.10
2015,01,18,03,01,16.90
2015,01,18,03,02,12.80
2015,01,18,03,03,5.70
2015,01,18,03,04,15.90
2015,01,18,03,05,8.80
2015,01,18,03,06,8.40
2015,01,18,03,07,18.20
2015,01,18,03,08,13.50
2015,01,18,03,09,10.90
2015,01,18,03,10,6.00
2015,01,18,03,11,9.70
2015,01,18,03,12,10.20
2015,01,18,03,13,14.00
2015,01,18,03,14,17.60
2015,01,18,03,15,11.70
2015,01,18,03,16,9.90
2015,01,18,03,17,7.20
2015,01,18,03,18,13.50
2015,01,18,03,19,14.20
2015,01,18,03,20,7.30
2015,01,18,03,21,12.20
2015,01,18,03,22,8.20
2015,01,18,03,23,17.10
2015,01,18,03,24,15.90
2015,01,18,03,25,14.10
2015,01,18,03,26,18.30
2015,01,18,03,27,13.50
2015,01,18,03,28,8.30
2015,01,18,03,29,3.60
2015,01,18,03,30,7.90
2015,01,18,03,31,5.80
2015,01,18,03,32,5.30
2015,01,18,03,33,4.90
2015,01,18,03,34,8.00
2015,01,18,03,35,11.00
2015,01,18,03,36,11.20
2015,01,18,03,37,6.40
2015,01,18,03,38,4.50
2015,01,18,03,39,6.40
2015,01,18,03,40,6.10
2015,01,18,03,41,1.90
2015,01,18,03,42,5.80
2015,01,18,03,43,4.40
2015,01,18,03,44,6.20
2015,01,18,03,45,1.70
2015,01,18,03,46,2.10
2015,01,18,03,47,5.00
2015,01,18,03,48,1.80
2015,01,18,03,49,1.50
2015,01,18,03,50,2.30
2015,01,18,03,51,1.60
2015,01,18,03,52,4.10
2015,01,18,03,53,5.70
2015,01,18,03,54,4.30
2015,01,18,03,55,0.30
2015,01,18,03,56,3.30
2015,01,18,03,57,3.50
2015,01,18,03,58,1.40
2015,01,18,03,59,5.70
2015,01,18,04,00,2.10
2015,01,18,04,01,3.10
2015,01,18,04,02,1.70
2015,01,18,04,03,2.30
2015,01,18,04,04,1.80
2015,01,18,04,05,6.70
2015,01,18,04,06,7.40
2015,01,18,04,07,6.30
2015,01,18,04,08,4.30
2015,01,18,04,09,3.80
2015,01,18,04,10,4.70
2015,01,18,04,11,1.80
2015,01,18,04,12,4.30
2015,01,18,04,13,5.30
2015,01,18,04,14,4.90
2015,01,18,04,15,4.70
2015,01,18,04,16,8.60
2015,01,18,04,17,4.10
2015,01,18,04,18,6.60
2015,01,18,04,19,4.60
2015,01,18,04,20,7.90
2015,01,18,04,21,3.70
2015,01,18,04,22,3.00
2015,01,18,04,23,6.00
2015,01,18,04,24,2.40
2015,01,18,04,25,3.00
2015,01,18,04,26,4.40
2015,01,18,04,27,4.50
2015,01,18,04,28,4.70
2015,01,18,04,29,5.80
2015,01,18,04,30,7.50
2015,01,18,04,31,2.40
2015,01,18,04,32,1.40
2015,01,18,04,33,1.60
2015,01,18,04,34,3.70
2015,01,18,04,35,2.40
2015,01,18,04,36,1.30
2015,01,18,04,37,2.40
2015,01,18,04,38,3.90
2015,01,18,04,39,4.70
2015,01,18,04,40,4.90
2015,01,18,04,41,4.30
2015,01,18,04,42,2.70
2015,01,18,04,43,2.30
2015,01,18,04,44,3.50
2015,01,18,04,45,6.70
2015,01,18,04,46,2.20
2015,01,18,04,47,1.50
2015,01,18,04,48,0.00
2015,01,18,04,49,0.20
2015,01,18,04,50,3.20
2015,01,18,04,51,2.80
2015,01,18,04,52,1.90
2015,01,18,04,53,2.00
2015,01,18,04,54,1.40
2015,01,18,04,55,3.00
2015,01,18,04,56,0.00
2015,01,18,04,57,0.30
2015,01,18,04,58,0.40
2015,01,18,04,59,2.30
2015,01,18,05,00,3.00
2015,01,18,05,01,0.30
2015,01,18,05,02,0.00
2015,01,18,05,03,2.40
2015,01,18,05,04,2.20
2015,01,18,05,05,1.50
2015,01,18,05,06,4.80
2015,01,18,05,07,2.60
2015,01,18,05,08,1.80
2015,01,18,05,09,8.80
2015,01,18,05,10,15.50
2015,01,18,05,11,8.40
2015,01,18,05,12,13.70
2015,01,18,05,13,8.90
2015,01,18,05,14,9.30
2015,01,18,05,15,13.70
2015,01,18,05,16,18.40
2015,01,18,05,17,8.00
2015,01,18,05,18,15.40
2015,01,18,05,19,23.80
2015,01,18,05,20,22.20
2015,01,18,05,21,13.90
2015,01,18,05,22,17.50
2015,01,18,05,23,17.20
2015,01,18,05,24,11.60
2015,01,18,05,25,20.80
2015,01,18,05,26,9.30
2015,01,18,05,27,9.20
2015,01,18,05,28,19.90
2015,01,18,05,29,15.60
2015,01,18,05,30,15.50
2015,01,18,05,31,16.60
2015,01,18,05,32,7.80
2015,01,18,05,33,14.70
2015,01,18,05,34,18.70
2015,01,18,05,35,17.70
2015,01,18,05,36,20.10
2015,01,18,05,37,26.40
2015,01,18,05,38,15.70
2015,01,18,05,39,22.90
2015,01,18,05,40,17.10
2015,01,18,05,41,16.60
2015,01,18,05,42,16.60
2015,01,18,05,43,17.50
2015,01,18,05,44,11.00
2015,01,18,05,45,13.80
2015,01,18,05,46,19.00
2015,01,18,05,47,13.20
2015,01,18,05,48,15.80
2015,01,18,05,49,14.90
2015,01,18,05,50,13.00
2015,01,18,05,51,9.70
2015,01,18,05,52,13.10
2015,01,18,05,53,16.70
2015,01,18,05,54,14.50
2015,01,18,05,55,10.30
2015,01,18,05,56,19.90
2015,01,18,05,57,20.70
2015,01,18,05,58,17.60
2015,01,18,05,59,18.20
2015,01,18,06,00,13.80
2015,01,18,06,01,13.90
2015,01,18,06,02,15.80
2015,01,18,06,03,16.30
2015,01,18,06,04,15.80
2015,01,18,06,05,16.20
2015,01,18,06,06,18.90
2015,01,18,06,07,20.00
2015,01,18,06,08,16.20
2015,01,18,06,09,19.50
2015,01,18,06,10,23.00
2015,01,18,06,11,26.10
2015,01,18,06,12,14.30
2015,01,18,06,13,15.60
2015,01,18,06,14,20.80
2015,01,18,06,15,21.80
2015,01,18,06,16,17.60
2015,01,18,06,17,19.20
2015,01,18,06,18,25.90
2015,01,18,06,19,28.60
2015,01,18,06,20,31.80
2015,01,18,06,21,16.40
2015,01,18,06,22,18.60
2015,01,18,06,23,15.60
2015,01,18,06,24,16.10
2015,01,18,06,25,13.70
2015,01,18,06,26,14.40
2015,01,18,06,27,19.10
2015,01,18,06,28,15.70
2015,01,18,06,29,17.10
2015,01,18,06,30,28.50
2015,01,18,06,31,11.10
2015,01,18,06,32,19.30
2015,01,18,06,33,24.70
2015,01,18,06,34,26.80
2015,01,18,06,35,20.30
2015,01,18,06,36,14.20
2015,01,18,06,37,9.20
2015,01,18,06,38,15.30
2015,01,18,06,39,20.90
2015,01,18,06,40,30.80
2015,01,18,06,41,17.50
2015,01,18,06,42,19.20
2015,01,18,06,43,11.40
2015,01,18,06,44,33.20
2015,01,18,06,45,18.00
2015,01,18,06,46,11.80
2015,01,18,06,47,27.00
2015,01,18,06,48,25.00
2015,01,18,06,49,29.00
2015,01,18,06,50,25.80
2015,01,18,06,51,15.80
2015,01,18,06,52,27.80
2015,01,18,06,53,13.00
2015,01,18,06,54,21.10
2015,01,18,06,55,18.90
2015,01,18,06,56,17.90
2015,01,18,06,57,17.30
2015,01,18,06,58,12.90
2015,01,18,06,59,14.20
2015,01,18,07,00,11.00
2015,01,18,07,01,19.30
2015,01,18,07,02,16.70
2015,01,18,07,03,16.80
2015,01,18,07,04,27.60
2015,01,18,07,05,23.80
2015,01,18,07,06,19.10
2015,01,18,07,07,17.20
2015,01,18,07,08,23.40
2015,01,18,07,09,9.50
2015,01,18,07,10,14.60
2015,01,18,07,11,15.30
2015,01,18,07,12,12.80
2015,01,18,07,13,10.00
2015,01,18,07,14,14.00
2015,01,18,07,15,22.50
2015,01,18,07,16,26.50
2015,01,18,07,17,21.20
2015,01,18,07,18,11.70
2015,01,18,07,19,26.20
2015,01,18,07,20,19.60
2015,01,18,07,21,29.50
2015,01,18,07,22,23.00
2015,01,18,07,23,28.50
2015,01,18,07,24,16.70
2015,01,18,07,25,18.80
2015,01,18,07,26,13.80
2015,01,18,07,27,13.90
2015,01,18,07,28,13.80
2015,01,18,07,29,26.90
2015,01,18,07,30,19.10
2015,01,18,07,31,19.30
2015,01,18,07,32,15.10
2015,01,18,07,33,19.70
2015,01,18,07,34,23.70
2015,01,18,07,35,17.50
2015,01,18,07,36,24.80
2015,01,18,07,37,28.70
2015,01,18,07,38,25.20
2015,01,18,07,39,28.20
2015,01,18,07,40,18.20
2015,01,18,07,41,15.50
2015,01,18,07,42,15.90
2015,01,18,07,43,23.20
2015,01,18,07,44,23.20
2015,01,18,07,45,18.90
2015,01,18,07,46,21.80
2015,01,18,07,47,22.10
2015,01,18,07,48,17.00
2015,01,18,07,49,11.20
2015,01,18,07,50,22.40
2015,01,18,07,51,24.10
2015,01,18,07,52,31.30
2015,01,18,07,53,31.60
2015,01,18,07,54,24.50
2015,01,18,07,55,23.70
2015,01,18,07,56,21.70
2015,01,18,07,57,19.20
2015,01,18,07,58,25.00
2015,01,18,07,59,28.10
2015,01,18,08,00,29.40
2015,01,18,08,01,23.30
2015,01,18,08,02,27.00
2015,01,18,08,03,28.30
2015,01,18,08,04,20.20
2015,01,18,08,05,17.10
2015,01,18,08,06,24.10
2015,01,18,08,07,27.30
2015,01,18,08,08,29.40
2015,01,18,08,09,31.30
2015,01,18,08,10,21.90
2015,01,18,08,11,13.70
2015,01,18,08,12,23.30
2015,01,18,08,13,27.40
2015,01,18,08,14,26.20
2015,01,18,08,15,35.00
2015,01,18,08,16,21.20
2015,01,18,08,17,40.10
2015,01,18,08,18,24.10
2015,01,18,08,19,27.00
2015,01,18,08,20,19.50
2015,01,18,08,21,20.40
2015,01,18,08,22,20.80
2015,01,18,08,23,15.00
2015,01,18,08,24,15.40
2015,01,18,08,25,28.20
2015,01,18,08,26,27.40
2015,01,18,08,27,36.10
2015,01,18,08,28,32.90
2015,01,18,08,29,25.10
2015,01,18,08,30,20.30
2015,01,18,08,31,17.80
2015,01,18,08,32,21.00
2015,01,18,08,33,28.80
2015,01,18,08,34,29.40
2015,01,18,08,35,23.80
2015,01,18,08,36,23.70
2015,01,18,08,37,15.10
2015,01,18,08,38,32.80
2015,01,18,08,39,27.60
2015,01,18,08,40,20.80
2015,01,18,08,41,33.50
2015,01,18,08,42,22.00
2015,01,18,08,43,25.60
2015,01,18,08,44,18.30
2015,01,18,08,45,15.80
2015,01,18,08,46,23.40
2015,01,18,08,47,25.40
2015,01,18,08,48,25.60
2015,01,18,08,49,19.60
2015,01,18,08,50,18.60
2015,01,18,08,51,32.80
2015,01,18,08,52,29.00
2015,01,18,08,53,13.80
2015,01,18,08,54,21.90
2015,01,18,08,55,13.00
2015,01,18,08,56,23.90
2015,01,18,08,57,13.80
2015,01,18,08,58,12.60
2015,01,18,08,59,21.10
2015,01,18,09,00,11.00
2015,01,18,09,01,26.90
2015,01,18,09,02,21.10
2015,01,18,09,03,13.40
2015,01,18,09,04,19.00
2015,01,18,09,05,8.10
2015,01,18,09,06,15.00
2015,01,18,09,07,26.30
2015,01,18,09,08,15.00
2015,01,18,09,09,18.30
2015,01,18,09,10,19.20
2015,01,18,09,11,14.00
2015,01,18,09,12,23.40
2015,01,18,09,13,17.60
2015,01,18,09,14,7.20
2015,01,18,09,15,18.60
2015,01,18,09,16,11.50
2015,01,18,09,17,16.90
2015,01,18,09,18,18.60
2015,01,18,09,19,11.90
2015,01,18,09,20,17.80
2015,01,18,09,21,13.70
2015,01,18,09,22,17.90
2015,01,18,09,23,17.60
2015,01,18,09,24,13.00
2015,01,18,09,25,14.70
2015,01,18,09,26,12.00
2015,01,18,09,27,11.40
2015,01,18,09,28,8.60
2015,01,18,09,29,23.70
2015,01,18,09,30,31.80
2015,01,18,09,31,25.40
2015,01,18,09,32,17.50
2015,01,18,09,33,21.90
2015,01,18,09,34,18.10
2015,01,18,09,35,25.00
2015,01,18,09,36,16.80
2015,01,18,09,37,21.30
2015,01,18,09,38,19.20
2015,01,18,09,39,16.20
2015,01,18,09,40,12.60
2015,01,18,09,41,11.40
2015,01,18,09,42,12.50
2015,01,18,09,43,16.30
2015,01,18,09,44,6.10
2015,01,18,09,45,12.10
2015,01,18,09,46,18.70
2015,01,18,09,47,6.10
2015,01,18,09,48,5.90
2015,01,18,09,49,11.90
2015,01,18,09,50,6.50
2015,01,18,09,51,12.90
2015,01,18,09,52,15.30
2015,01,18,09,53,15.10
2015,01,18,09,54,7.40
2015,01,18,09,55,15.00
2015,01,18,09,56,28.50
2015,01,18,09,57,13.00
2015,01,18,09,58,12.50
2015,01,18,09,59,11.90
2015,01,18,10,00,6.50
2015,01,18,10,01,16.60
2015,01,18,10,02,8.60
2015,01,18,10,03,4.30
2015,01,18,10,04,23.00
2015,01,18,10,05,12.10
2015,01,18,10,06,11.10
2015,01,18,10,07,12.60
2015,01,18,10,08,13.10
2015,01,18,10,09,5.80
2015,01,18,10,10,8.00
2015,01,18,10,11,8.50
2015,01,18,10,12,22.00
2015,01,18,10,13,22.60
2015,01,18,10,14,16.90
2015,01,18,10,15,17.60
2015,01,18,10,16,12.60
2015,01,18,10,17,11.20
2015,01,18,10,18,7.60
2015,01,18,10,19,4.50
2015,01,18,10,20,7.50
2015,01,18,10,21,16.70
2015,01,18,10,22,17.90
2015,01,18,10,23,18.70
2015,01,18,10,24,24.90
2015,01,18,10,25,21.20
2015,01,18,10,26,15.30
2015,01,18,10,27,12.20
2015,01,18,10,28,13.30
2015,01,18,10,29,14.10
2015,01,18,10,30,15.10
2015,01,18,10,31,11.60
2015,01,18,10,32,13.50
2015,01,18,10,33,15.50
2015,01,18,10,34,12.30
2015,01,18,10,35,14.20
2015,01,18,10,36,12.00
2015,01,18,10,37,10.50
2015,01,18,10,38,10.00
2015,01,18,10,39,1.90
2015,01,18,10,40,3.00
2015,01,18,10,41,6.50
2015,01,18,10,42,13.30
2015,01,18,10,43,11.50
2015,01,18,10,44,13.00
2015,01,18,10,45,8.00
2015,01,18,10,46,4.40
2015,01,18,10,47,4.80
2015,01,18,10,48,6.80
2015,01,18,10,49,4.60
2015,01,18,10,50,5.30
2015,01,18,10,51,3.40
2015,01,18,10,52,4.30
2015,01,18,10,53,6.00
2015,01,18,10,54,15.20
2015,01,18,10,55,10.20
2015,01,18,10,56,4.70
2015,01,18,10,57,5.30
2015,01,18,10,58,5.00
2015,01,18,10,59,6.20
2015,01,18,11,00,5.00
2015,01,18,11,01,3.20
2015,01,18,11,02,4.30
2015,01,18,11,03,2.10
2015,01,18,11,04,3.70
2015,01,18,11,05,7.40
2015,01,18,11,06,5.20
2015,01,18,11,07,6.40
2015,01,18,11,08,4.10
2015,01,18,11,09,6.80
2015,01,18,11,10,5.80
2015,01,18,11,11,2.50
2015,01,18,11,12,4.10
2015,01,18,11,13,9.00
2015,01,18,11,14,8.50
2015,01,18,11,15,5.30
2015,01,18,11,16,4.80
2015,01,18,11,17,2.60
2015,01,18,11,18,4.30
2015,01,18,11,19,5.60
2015,01,18,11,20,9.70
2015,01,18,11,21,5.10
2015,01,18,11,22,7.40
2015,01,18,11,23,7.30
2015,01,18,11,24,4.40
2015,01,18,11,25,3.40
2015,01,18,11,26,4.10
2015,01,18,11,27,2.60
2015,01,18,11,28,2.50
2015,01,18,11,29,12.50
2015,01,18,11,30,12.20
2015,01,18,11,31,7.00
2015,01,18,11,32,6.40
2015,01,18,11,33,2.20
2015,01,18,11,34,3.20
2015,01,18,11,35,3.50
2015,01,18,11,36,6.20
2015,01,18,11,37,9.00
2015,01,18,11,38,8.60
2015,01,18,11,39,13.50
2015,01,18,11,40,6.50
2015,01,18,11,41,3.90
2015,01,18,11,42,3.10
2015,01,18,11,43,3.00
2015,01,18,11,44,1.30
2015,01,18,11,45,1.80
2015,01,18,11,46,1.80
2015,01,18,11,47,2.90
2015,01,18,11,48,1.10
2015,01,18,11,49,1.60
2015,01,18,11,50,0.00
2015,01,18,11,51,0.60
2015,01,18,11,52,3.70
2015,01,18,11,53,4.00
2015,01,18,11,54,1.40
2015,01,18,11,55,0.50
2015,01,18,11,56,1.50
2015,01,18,11,57,1.40
2015,01,18,11,58,0.30
2015,01,18,11,59,4.90
2015,01,18,12,00,2.50
2015,01,18,12,01,6.60
2015,01,18,12,02,8.20
2015,01,18,12,03,5.10
2015,01,18,12,04,5.40
2015,01,18,12,05,2.30
2015,01,18,12,06,2.00
2015,01,18,12,07,3.70
2015,01,18,12,08,1.00
2015,01,18,12,09,1.60
2015,01,18,12,10,1.00
2015,01,18,12,11,6.80
2015,01,18,12,12,4.10
2015,01,18,12,13,2.60
2015,01,18,12,14,2.30
2015,01,18,12,15,2.00
2015,01,18,12,16,3.20
2015,01,18,12,17,7.60
2015,01,18,12,18,4.80
2015,01,18,12,19,4.60
2015,01,18,12,20,2.10
2015,01,18,12,21,2.60
2015,01,18,12,22,1.90
2015,01,18,12,23,3.50
2015,01,18,12,24,7.70
2015,01,18,12,25,7.60
2015,01,18,12,26,6.50
2015,01,18,12,27,2.50
2015,01,18,12,28,5.10
2015,01,18,12,29,6.00
2015,01,18,12,30,8.20
2015,01,18,12,31,5.30
2015,01,18,12,32,6.20
2015,01,18,12,33,5.40
2015,01,18,12,34,3.90
2015,01,18,12,35,6.60
2015,01,18,12,36,14.60
2015,01,18,12,37,10.30
2015,01,18,12,38,7.60
2015,01,18,12,39,5.20
2015,01,18,12,40,5.50
2015,01,18,12,41,10.20
2015,01,18,12,42,9.20
2015,01,18,12,43,3.40
2015,01,18,12,44,1.60
2015,01,18,12,45,1.40
2015,01,18,12,46,6.90
2015,01,18,12,47,15.00
2015,01,18,12,48,9.70
2015,01,18,12,49,7.20
2015,01,18,12,50,9.20
2015,01,18,12,51,14.20
2015,01,18,12,52,10.60
2015,01,18,12,53,8.00
2015,01,18,12,54,6.50
2015,01,18,12,55,14.30
2015,01,18,12,56,13.70
2015,01,18,12,57,6.70
2015,01,18,12,58,14.00
2015,01,18,12,59,10.20
2015,01,18,13,00,8.30
2015,01,18,13,01,9.70
2015,01,18,13,02,7.60
2015,01,18,13,03,11.40
2015,01,18,13,04,8.10
2015,01,18,13,05,7.10
2015,01,18,13,06,17.60
2015,01,18,13,07,14.90
2015,01,18,13,08,5.70
2015,01,18,13,09,9.00
2015,01,18,13,10,13.90
2015,01,18,13,11,13.20
2015,01,18,13,12,11.80
2015,01,18,13,13,12.10
2015,01,18,13,14,10.50
2015,01,18,13,15,11.60
2015,01,18,13,16,14.60
2015,01,18,13,17,15.20
2015,01,18,13,18,7.90
2015,01,18,13,19,14.80
2015,01,18,13,20,19.30
2015,01,18,13,21,19.70
2015,01,18,13,22,13.20
2015,01,18,13,23,9.30
2015,01,18,13,24,11.50
2015,01,18,13,25,7.60
2015,01,18,13,26,5.40
2015,01,18,13,27,4.50
2015,01,18,13,28,19.70
2015,01,18,13,29,13.60
2015,01,18,13,30,12.80
2015,01,18,13,31,10.10
2015,01,18,13,32,11.20
2015,01,18,13,33,15.50
2015,01,18,13,34,12.30
2015,01,18,13,35,11.00
2015,01,18,13,36,16.60
2015,01,18,13,37,13.00
2015,01,18,13,38,7.40
2015,01,18,13,39,17.10
2015,01,18,13,40,8.90
2015,01,18,13,41,15.20
2015,01,18,13,42,11.30
2015,01,18,13,43,8.20
2015,01,18,13,44,6.30
2015,01,18,13,45,13.60
2015,01,18,13,46,8.70
2015,01,18,13,47,12.50
2015,01,18,13,48,16.10
2015,01,18,13,49,16.00
2015,01,18,13,50,14.20
2015,01,18,13,51,13.00
2015,01,18,13,52,5.00
2015,01,18,13,53,7.60
2015,01,18,13,54,8.00
2015,01,18,13,55,11.30
2015,01,18,13,56,10.70
2015,01,18,13,57,8.00
2015,01,18,13,58,7.10
2015,01,18,13,59,11.50
2015,01,18,14,00,15.20
2015,01,18,14,01,13.90
2015,01,18,14,02,11.40
2015,01,18,14,03,10.10
2015,01,18,14,04,5.20
2015,01,18,14,05,7.10
2015,01,18,14,06,16.30
2015,01,18,14,07,14.10
2015,01,18,14,08,9.20
2015,01,18,14,09,9.30
2015,01,18,14,10,18.80
2015,01,18,14,11,14.90
2015,01,18,14,12,8.70
2015,01,18,14,13,4.70
2015,01,18,14,14,4.00
2015,01,18,14,15,6.20
2015,01,18,14,16,12.20
2015,01,18,14,17,12.80
2015,01,18,14,18,8.00
2015,01,18,14,19,11.80
2015,01,18,14,20,9.80
2015,01,18,14,21,16.20
2015,01,18,14,22,12.40
2015,01,18,14,23,10.50
2015,01,18,14,24,9.90
2015,01,18,14,25,11.70
2015,01,18,14,26,12.20
2015,01,18,14,27,14.70
2015,01,18,14,28,13.70
2015,01,18,14,29,12.70
2015,01,18,14,30,7.00
2015,01,18,14,31,2.40
2015,01,18,14,32,1.70
2015,01,18,14,33,4.10
2015,01,18,14,34,13.40
2015,01,18,14,35,14.10
2015,01,18,14,36,15.80
2015,01,18,14,37,7.70
2015,01,18,14,38,12.70
2015,01,18,14,39,11.00
2015,01,18,14,40,10.70
2015,01,18,14,41,8.90
2015,01,18,14,42,11.70
2015,01,18,14,43,12.90
2015,01,18,14,44,10.90
2015,01,18,14,45,10.50
2015,01,18,14,46,9.00
2015,01,18,14,47,9.70
2015,01,18,14,48,11.30
2015,01,18,14,49,10.70
2015,01,18,14,50,14.30
2015,01,18,14,51,13.20
2015,01,18,14,52,10.90
2015,01,18,14,53,10.70
2015,01,18,14,54,14.70
2015,01,18,14,55,14.60
2015,01,18,14,56,9.50
2015,01,18,14,57,12.70
2015,01,18,14,58,15.90
2015,01,18,14,59,7.80
2015,01,18,15,00,11.10
2015,01,18,15,01,8.50
2015,01,18,15,02,16.90
2015,01,18,15,03,9.50
2015,01,18,15,04,9.00
2015,01,18,15,05,19.40
2015,01,18,15,06,15.80
2015,01,18,15,07,13.00
2015,01,18,15,08,10.50
2015,01,18,15,09,5.80
2015,01,18,15,10,18.30
2015,01,18,15,11,17.90
2015,01,18,15,12,11.10
2015,01,18,15,13,13.40
2015,01,18,15,14,19.80
2015,01,18,15,15,11.30
2015,01,18,15,16,6.70
2015,01,18,15,17,5.50
2015,01,18,15,18,12.60
2015,01,18,15,19,13.20
2015,01,18,15,20,13.10
2015,01,18,15,21,16.30
2015,01,18,15,22,15.40
2015,01,18,15,23,11.00
2015,01,18,15,24,15.00
2015,01,18,15,25,7.00
2015,01,18,15,26,15.40
2015,01,18,15,27,12.90
2015,01,18,15,28,8.90
2015,01,18,15,29,9.70
2015,01,18,15,30,11.20
2015,01,18,15,31,9.60
2015,01,18,15,32,11.20
2015,01,18,15,33,5.10
2015,01,18,15,34,7.40
2015,01,18,15,35,4.30
2015,01,18,15,36,5.20
2015,01,18,15,37,4.60
2015,01,18,15,38,4.60
2015,01,18,15,39,5.00
2015,01,18,15,40,4.50
2015,01,18,15,41,9.70
2015,01,18,15,42,4.60
2015,01,18,15,43,7.40
2015,01,18,15,44,13.00
2015,01,18,15,45,12.20
2015,01,18,15,46,13.40
2015,01,18,15,47,21.80
2015,01,18,15,48,6.80
2015,01,18,15,49,6.80
2015,01,18,15,50,5.90
2015,01,18,15,51,3.20
2015,01,18,15,52,2.20
2015,01,18,15,53,8.30
2015,01,18,15,54,8.10
2015,01,18,15,55,8.80
2015,01,18,15,56,9.10
2015,01,18,15,57,9.90
2015,01,18,15,58,7.50
2015,01,18,15,59,4.70
2015,01,18,16,00,1.10
2015,01,18,16,01,8.00
2015,01,18,16,02,7.00
2015,01,18,16,03,11.90
2015,01,18,16,04,7.60
2015,01,18,16,05,14.20
2015,01,18,16,06,9.00
2015,01,18,16,07,6.10
2015,01,18,16,08,7.20
2015,01,18,16,09,4.00
2015,01,18,16,10,12.50
2015,01,18,16,11,7.30
2015,01,18,16,12,9.00
2015,01,18,16,13,8.40
2015,01,18,16,14,13.90
2015,01,18,16,15,6.70
2015,01,18,16,16,5.60
2015,01,18,16,17,4.80
2015,01,18,16,18,14.00
2015,01,18,16,19,8.80
2015,01,18,16,20,8.50
2015,01,18,16,21,5.00
2015,01,18,16,22,7.20
2015,01,18,16,23,6.10
2015,01,18,16,24,7.10
2015,01,18,16,25,9.60
2015,01,18,16,26,9.70
2015,01,18,16,27,8.40
2015,01,18,16,28,8.50
2015,01,18,16,29,7.60
2015,01,18,16,30,9.30
2015,01,18,16,31,10.20
2015,01,18,16,32,7.90
2015,01,18,16,33,4.70
2015,01,18,16,34,6.70
2015,01,18,16,35,17.10
2015,01,18,16,36,7.40
2015,01,18,16,37,6.40
2015,01,18,16,38,11.00
2015,01,18,16,39,12.90
2015,01,18,16,40,11.90
2015,01,18,16,41,5.70
2015,01,18,16,42,7.00
2015,01,18,16,43,9.70
2015,01,18,16,44,8.20
2015,01,18,16,45,7.30
2015,01,18,16,46,10.10
2015,01,18,16,47,12.30
2015,01,18,16,48,15.00
2015,01,18,16,49,10.80
2015,01,18,16,50,7.60
2015,01,18,16,51,6.10
2015,01,18,16,52,16.50
2015,01,18,16,53,9.80
2015,01,18,16,54,12.70
2015,01,18,16,55,7.90
2015,01,18,16,56,7.00
2015,01,18,16,57,6.20
2015,01,18,16,58,9.10
2015,01,18,16,59,12.70
2015,01,18,17,00,12.70
2015,01,18,17,01,11.40
2015,01,18,17,02,0.90
2015,01,18,17,03,1.50
2015,01,18,17,04,1.40
2015,01,18,17,05,7.20
2015,01,18,17,06,11.80
2015,01,18,17,07,9.60
2015,01,18,17,08,8.20
2015,01,18,17,09,7.00
2015,01,18,17,10,10.00
2015,01,18,17,11,5.90
2015,01,18,17,12,6.40
2015,01,18,17,13,5.90
2015,01,18,17,14,16.30
2015,01,18,17,15,10.10
2015,01,18,17,16,7.60
2015,01,18,17,17,7.60
2015,01,18,17,18,7.20
2015,01,18,17,19,5.00
2015,01,18,17,20,8.10
2015,01,18,17,21,3.60
2015,01,18,17,22,6.00
2015,01,18,17,23,5.90
2015,01,18,17,24,10.10
2015,01,18,17,25,4.20
2015,01,18,17,26,4.20
2015,01,18,17,27,8.10
2015,01,18,17,28,4.80
2015,01,18,17,29,7.50
2015,01,18,17,30,0.60
2015,01,18,17,31,1.40
2015,01,18,17,32,7.20
2015,01,18,17,33,13.90
2015,01,18,17,34,10.70
2015,01,18,17,35,15.20
2015,01,18,17,36,8.70
2015,01,18,17,37,5.50
2015,01,18,17,38,2.10
2015,01,18,17,39,1.90
2015,01,18,17,40,0.30
2015,01,18,17,41,0.20